{"data":{"norad_id":52869,"intl_designator":"2022-062AR","name":"STARLINK-4266","alt_names":[],"object_type":"PAYLOAD","status":"ACTIVE","operator":null,"country":"US","launch_date":"2022-06-17","launch_site_code":"AFETR","launch_vehicle":null,"mission":null,"orbit_class":"UNKNOWN","rcs_meters":null,"size_class":null,"mass_kg":null,"dimensions":null,"purposes":["comms"],"wikipedia_slug":null,"has_3d_model":false,"image_url":null,"decayed_at":null,"tle_current":{"epoch":"2026-09-20T04:16:41.988864Z","epoch_age_seconds":96628,"freshness":"FRESH","line1":"1 52869U 22062AR  26263.17826376  .00000714  00000+0  32285-4 0  9996","line2":"2 52869  53.1585 206.9297 0001257  85.8746 274.2401 15.34391057235612","mean_motion":15.34391057,"eccentricity":0.0001257,"inclination_deg":53.1585,"raan_deg":206.9297,"arg_perigee_deg":85.8746,"mean_anomaly_deg":274.2401,"bstar":3.2285e-5,"rev_number":23561,"period_min":93.848305060866,"perigee_km":461.86992385748,"apogee_km":463.58971777623,"semimajor_km":6840.8668208169,"source":"CELESTRAK","updated_at":"2026-09-20T09:00:40.136075Z"}}}